EW9240 Weather Reports


time (UTC)temp
C
wind
direction
speed
KPH
gust
KPH
rain 1hr
cm
rain 24hr
cm
rain mn
cm
humidity
%
barometer
mb
20260503194549 26 292 1.6 6.4 0.00 0.00 0.00 52 1008.2
20260503193040 25 282 3.2 6.4 0.00 0.00 0.00 51 1008.4
20260503191514 25 293 1.6 8.0 0.00 0.00 0.00 53 1008.6
20260503190106 24 302 1.6 8.0 0.00 0.00 0.00 56 1008.8
20260503184539 23 280 0.0 4.8 0.00 0.00 0.00 57 1009.0
20260503183020 23 286 1.6 6.4 0.00 0.00 0.00 58 1009.1
20260503181633 22 288 0.0 8.0 0.00 0.00 0.00 61 1009.3
20260503180041 21 278 0.0 8.0 0.00 0.00 0.00 64 1009.4
20260503174557 21 273 1.6 8.0 0.00 0.00 0.00 64 1009.6
20260503173031 21 271 0.0 6.4 0.00 0.00 0.00 66 1009.7
20260503171520 20 280 1.6 6.4 0.00 0.00 0.00 67 1009.8
20260503100112 12 131 0.0 0.0 0.00 0.00 0.00 91 1010.3
20260503081528 13 131 0.0 0.0 0.00 0.00 0.00 88 1010.6
20260503071532 14 131 0.0 0.0 0.00 0.00 0.00 86 1010.7
20260503054510 16 240 0.0 1.6 0.00 0.00 0.00 80 1010.7
20260503053100 17 288 0.0 1.6 0.00 0.00 0.00 78 1010.4
20260503051548 16 269 0.0 0.0 0.00 0.00 0.00 79 1010.4
20260503050030 16 274 0.0 1.6 0.00 0.00 0.00 79 1010.5
20260503044512 17 66 0.0 0.0 0.00 0.00 0.00 79 1010.9
20260503043102 17 66 0.0 0.0 0.00 0.00 0.00 78 1010.7
20260503041544 17 66 0.0 0.0 0.00 0.00 0.00 77 1010.9
20260503040031 17 66 0.0 0.0 0.00 0.00 0.00 76 1010.6
20260503034516 17 132 0.0 3.2 0.00 0.00 0.00 75 1010.6
20260503033001 18 139 0.0 1.6 0.00 0.00 0.00 74 1010.5
20260503031557 18 219 0.0 0.0 0.00 0.00 0.00 74 1010.5
20260503030038 18 110 0.0 1.6 0.00 0.00 0.00 73 1010.3
20260503024524 18 212 1.6 4.8 0.00 0.00 0.00 72 1010.3
20260503023010 19 226 3.2 14.5 0.00 0.00 0.00 71 1010.1
20260503021602 21 205 1.6 8.0 0.00 0.00 0.00 65 1010.0
20260503020051 21 224 0.0 3.2 0.00 0.00 0.00 64 1009.6
20260503014537 21 217 0.0 1.6 0.00 0.00 0.00 65 1009.3
20260503013104 21 209 0.0 3.2 0.00 0.00 0.00 64 1009.3
20260503011604 21 212 0.0 3.2 0.00 0.00 0.00 63 1009.3
20260503010047 21 214 0.0 1.6 0.00 0.00 0.00 64 1009.2
20260503004519 21 125 0.0 1.6 0.00 0.00 0.00 64 1009.3
20260503003007 21 136 0.0 3.2 0.00 0.00 0.00 63 1009.3
20260503001601 21 266 0.0 3.2 0.00 0.00 0.00 63 1009.2
20260503000038 21 276 0.0 3.2 0.00 0.00 0.00 64 1009.4
20260502234523 21 271 0.0 6.4 0.00 0.00 0.00 65 1009.6
20260502233015 20 153 0.0 6.4 0.00 0.00 0.00 66 1009.6
20260502231555 20 334 0.0 9.7 0.00 0.00 0.00 66 1009.9
20260502230038 19 356 3.2 9.7 0.00 0.00 0.00 67 1010.0
20260502224516 18 272 3.2 8.0 0.00 0.00 0.00 68 1010.2
20260502223002 18 269 0.0 6.4 0.00 0.00 0.00 68 1010.6
20260502221550 18 276 1.6 9.7 0.00 0.00 0.00 68 1010.7
20260502220029 18 307 1.6 4.8 0.00 0.00 0.00 68 1011.0
20260502214515 18 134 0.0 6.4 0.00 0.00 0.00 69 1011.2
20260502213002 17 275 4.8 9.7 0.00 0.00 0.00 70 1011.5
20260502211603 17 312 3.2 9.7 0.00 0.00 0.00 70 1011.6
20260502210046 17 322 1.6 9.7 0.00 0.00 0.00 70 1011.8
20260502204517 16 283 1.6 6.4 0.00 0.00 0.00 72 1012.2
20260502203109 16 259 0.0 6.4 0.00 0.00 0.00 73 1012.4
20260502201557 16 61 0.0 4.8 0.00 0.00 0.00 74 1012.6
20260502200033 16 323 3.2 9.7 0.00 0.00 0.00 74 1012.7